Погода в Мерзифоне

Турция     40°52′02″N   35°27′55″E
темп.,
°C
ветер,
м/с
пор.,
м/с
влажн.,
%
обл.,
%
осадки,
мм/ч
давл.,
гПа
погр.,
м
20 апреля, вт
вт2000:00+20ю51237100 0.0 1005417
03:00+18юз3440100 0.0 100352
06:00+16зюз2349100 0.0 100539
09:00+18зсз13565 0.0 1007806
12:00+21зюз69371 0.0 10081905
15:00+22зюз593113 0.0 10072483
18:00+19сз473222 0.0 1009411
21:00+9с48805 0.0 1014351
21 апреля, ср
ср2100:00+9с4672100 0.0 1016461
03:00+9ссв247297 0.0 1016268
06:00+7ссз118125 0.0 101715
09:00+11св226678 0.0 1018656
12:00+16всв124927 0.0 10161646
15:00+17всв544251 0.1 10151601
18:00+11ссв6772100 0.1 1017536
21:00+8ссв468386 0.1 1020398
22 апреля, чт
чт2200:00+8ссв247981 0.0 1021490
03:00+8ссв117834 0.0 1020394
06:00+6сз118780 0.0 102129
09:00+10св2270100 0.0 1021551
12:00+15св2251100 0.0 10201160
15:00+18всв343895 0.1 10182351
18:00+13ссв67644 0.4 1020645
21:00+9с23855 0.4 102364
23 апреля, пт
пт2300:00+7ссз11891 0.0 102414
03:00+6сз11900 0.0 102410
06:00+6юз11890 0.0 102410
09:00+11юв11667 0.0 1023434
12:00+17юв234319 0.0 10211367
15:00+20юв3430100 0.0 10182258
18:00+19вюв23355 0.0 1017622
21:00+13зсз1144100 0.0 101811
24 апреля, сб
сб2400:00+12зюз014759 0.0 101810
03:00+11юз11495 0.0 101710
06:00+10зсз1152100 0.0 101810
09:00+16в114297 0.0 1017278
12:00+19всв1135100 0.0 1016528
15:00+22св2132100 0.0 1013941
18:00+17с575564 0.0 1013472
21:00+11ссв3671100 0.0 1014196